• In Czech Republic
  • List of Countries
  • For 7 days
  • Water Temperature
  • Satellite Maps
  • Weather Map
  • Weather Widgets
  • user-avatar
    Login

    Hourly Weather Ramsgate

    Today, 18 January, Thursday

    Time Temperature Precipitation Wind Pressure Humidity
    00:00 +4°C° 0.7 mm 13 mps 749 mmHg 87%
    01:00 +7°C° 0.6 mm 13 mps 748 mmHg 85%
    02:00 +8°C° 0.6 mm 14 mps 746 mmHg 84%
    03:00 +9°C° 0.6 mm 14 mps 744 mmHg 82%
    04:00 +8°C° 0.1 mm 15 mps 744 mmHg 79%
    05:00 +8°C° 0.1 mm 15 mps 744 mmHg 76%
    06:00 +6°C° 0.1 mm 16 mps 744 mmHg 73%
    07:00 +5°C° 0 mm 16 mps 745 mmHg 73%
    08:00 +5°C° 0 mm 16 mps 746 mmHg 73%
    09:00 +4°C° 0 mm 16 mps 747 mmHg 72%
    10:00 +5°C° 0 mm 14 mps 748 mmHg 70%
    11:00 +5°C° 0 mm 13 mps 749 mmHg 69%
    12:00 +7°C° 0 mm 11 mps 749 mmHg 67%
    13:00 +6°C° 0.1 mm 11 mps 749 mmHg 66%
    14:00 +5°C° 0.1 mm 12 mps 749 mmHg 66%
    15:00 +5°C° 0.1 mm 12 mps 749 mmHg 65%
    16:00 +4°C° 0.2 mm 12 mps 750 mmHg 67%
    17:00 +3°C° 0.2 mm 11 mps 750 mmHg 68%
    18:00 +2°C° 0.2 mm 11 mps 751 mmHg 70%
    19:00 +2°C° 0.1 mm 11 mps 751 mmHg 71%
    20:00 +2°C° 0.1 mm 11 mps 752 mmHg 71%
    21:00 +1°C° 0.1 mm 10 mps 753 mmHg 72%
    22:00 +1°C° 0 mm 10 mps 753 mmHg 72%
    23:00 +1°C° 0 mm 10 mps 753 mmHg 72%

    Tomorrow, 19 January, Friday

    Time Temperature Precipitation Wind Pressure Humidity
    00:00 0°C° 0 mm 9 mps 754 mmHg 73%
    01:00 0°C° 0 mm 9 mps 754 mmHg 73%
    02:00 0°C° 0 mm 8 mps 754 mmHg 74%
    03:00 0°C° 0 mm 8 mps 755 mmHg 75%
    04:00 0°C° 0 mm 8 mps 755 mmHg 75%
    05:00 -1°C° 0 mm 7 mps 755 mmHg 76%
    06:00 -1°C° 0 mm 7 mps 755 mmHg 77%
    07:00 -1°C° 0 mm 7 mps 755 mmHg 76%
    08:00 0°C° 0 mm 7 mps 755 mmHg 75%
    09:00 0°C° 0 mm 7 mps 756 mmHg 75%
    10:00 +2°C° 0 mm 7 mps 755 mmHg 70%
    11:00 +2°C° 0 mm 8 mps 755 mmHg 66%
    12:00 +4°C° 0 mm 8 mps 755 mmHg 62%
    13:00 +3°C° 0.1 mm 9 mps 755 mmHg 62%
    14:00 +2°C° 0.1 mm 9 mps 755 mmHg 63%
    15:00 +2°C° 0.1 mm 10 mps 754 mmHg 64%
    16:00 +2°C° 0.1 mm 10 mps 755 mmHg 65%
    17:00 +1°C° 0.1 mm 10 mps 755 mmHg 66%
    18:00 -1°C° 0.1 mm 11 mps 755 mmHg 67%
    19:00 0°C° 0 mm 10 mps 755 mmHg 67%
    20:00 0°C° 0 mm 10 mps 755 mmHg 67%
    21:00 0°C° 0 mm 10 mps 756 mmHg 67%
    22:00 0°C° 0 mm 10 mps 756 mmHg 68%
    23:00 0°C° 0 mm 10 mps 756 mmHg 69%

    Day after tomorrow, 20 January, Saturday

    Time Temperature Precipitation Wind Pressure Humidity
    00:00 0°C° 0 mm 10 mps 756 mmHg 70%
    01:00 -1°C° 0 mm 9 mps 756 mmHg 71%
    02:00 -1°C° 0 mm 9 mps 756 mmHg 72%
    03:00 -1°C° 0 mm 9 mps 756 mmHg 73%
    04:00 -1°C° 0 mm 8 mps 756 mmHg 74%
    05:00 -1°C° 0 mm 8 mps 756 mmHg 75%
    06:00 -1°C° 0 mm 7 mps 755 mmHg 76%
    07:00 -1°C° 0 mm 7 mps 755 mmHg 77%
    08:00 -1°C° 0 mm 6 mps 756 mmHg 77%
    09:00 0°C° 0 mm 5 mps 756 mmHg 77%
    10:00 +1°C° 0 mm 5 mps 756 mmHg 74%
    11:00 +2°C° 0 mm 5 mps 756 mmHg 71%
    12:00 +4°C° 0 mm 4 mps 756 mmHg 68%
    13:00 +3°C° 0 mm 5 mps 756 mmHg 69%
    14:00 +3°C° 0 mm 5 mps 756 mmHg 70%
    15:00 +3°C° 0 mm 5 mps 756 mmHg 71%
    16:00 +2°C° 0 mm 5 mps 757 mmHg 74%
    17:00 +1°C° 0 mm 5 mps 757 mmHg 77%
    18:00 +1°C° 0 mm 5 mps 758 mmHg 80%
    19:00 +1°C° 0 mm 5 mps 758 mmHg 80%
    20:00 +1°C° 0 mm 4 mps 759 mmHg 80%
    21:00 +1°C° 0 mm 4 mps 759 mmHg 80%
    22:00 +1°C° 0 mm 4 mps 760 mmHg 79%
    23:00 +2°C° 0 mm 3 mps 760 mmHg 78%

    21 January, Sunday

    Time Temperature Precipitation Wind Pressure Humidity
    00:00 +2°C° 0 mm 3 mps 760 mmHg 78%
    01:00 +3°C° 0 mm 2 mps 760 mmHg 78%
    02:00 +4°C° 0 mm 2 mps 760 mmHg 79%
    03:00 +4°C° 0 mm 2 mps 760 mmHg 80%
    04:00 +3°C° 0.4 mm 3 mps 759 mmHg 82%
    05:00 +3°C° 0.4 mm 4 mps 759 mmHg 85%
    06:00 +2°C° 0.4 mm 5 mps 759 mmHg 87%
    07:00 +3°C° 0.9 mm 6 mps 758 mmHg 89%
    08:00 +3°C° 0.9 mm 7 mps 758 mmHg 91%
    09:00 +4°C° 0.9 mm 8 mps 758 mmHg 93%
    10:00 +5°C° 1 mm 8 mps 757 mmHg 93%
    11:00 +6°C° 1 mm 8 mps 757 mmHg 93%
    12:00 +7°C° 1 mm 8 mps 756 mmHg 93%
    13:00 +9°C° 1.3 mm 8 mps 756 mmHg 92%
    14:00 +10°C° 1.3 mm 9 mps 756 mmHg 92%
    15:00 +11°C° 1.3 mm 9 mps 756 mmHg 91%
    16:00 +11°C° 0.2 mm 9 mps 756 mmHg 92%
    17:00 +10°C° 0.2 mm 8 mps 756 mmHg 92%
    18:00 +10°C° 0.2 mm 8 mps 757 mmHg 92%
    19:00 +10°C° 0 mm 8 mps 757 mmHg 92%
    20:00 +10°C° 0 mm 8 mps 758 mmHg 92%
    21:00 +10°C° 0 mm 7 mps 759 mmHg 92%
    22:00 +10°C° 0 mm 7 mps 759 mmHg 93%
    23:00 +9°C° 0 mm 6 mps 760 mmHg 94%

    22 January, Monday

    Time Temperature Precipitation Wind Pressure Humidity
    00:00 +9°C° 0 mm 6 mps 760 mmHg 95%
    01:00 +9°C° 0 mm 6 mps 760 mmHg 95%
    02:00 +9°C° 0 mm 5 mps 760 mmHg 96%
    03:00 +9°C° 0 mm 5 mps 760 mmHg 97%
    04:00 +9°C° 0.5 mm 5 mps 760 mmHg 96%
    05:00 +10°C° 0.5 mm 5 mps 760 mmHg 96%
    06:00 +10°C° 0.5 mm 5 mps 760 mmHg 96%
    07:00 +10°C° 0.4 mm 6 mps 760 mmHg 95%
    08:00 +11°C° 0.4 mm 7 mps 760 mmHg 93%
    09:00 +11°C° 0.4 mm 8 mps 760 mmHg 92%
    10:00 +11°C° 0 mm 9 mps 760 mmHg 90%
    11:00 +11°C° 0 mm 9 mps 760 mmHg 89%
    12:00 +12°C° 0 mm 10 mps 760 mmHg 87%
    13:00 +11°C° 0 mm 10 mps 759 mmHg 86%
    14:00 +11°C° 0 mm 10 mps 759 mmHg 86%
    15:00 +11°C° 0 mm 11 mps 759 mmHg 85%
    16:00 +11°C° 0 mm 11 mps 759 mmHg 85%
    17:00 +10°C° 0 mm 12 mps 759 mmHg 85%
    18:00 +10°C° 0 mm 12 mps 758 mmHg 86%
    19:00 +10°C° 0.1 mm 12 mps 758 mmHg 86%
    20:00 +10°C° 0.1 mm 12 mps 758 mmHg 86%
    21:00 +10°C° 0.1 mm 12 mps 758 mmHg 87%
    22:00 +11°C° 0.2 mm 11 mps 759 mmHg 87%
    23:00 +11°C° 0.2 mm 11 mps 759 mmHg 87%

    23 January, Tuesday

    Time Temperature Precipitation Wind Pressure Humidity
    00:00 +11°C° 0.2 mm 11 mps 759 mmHg 87%
    01:00 +9°C° 0 mm 10 mps 759 mmHg 87%
    02:00 +9°C° 0 mm 10 mps 760 mmHg 87%
    03:00 +8°C° 0 mm 9 mps 760 mmHg 87%
    04:00 +8°C° 0 mm 9 mps 761 mmHg 87%
    05:00 +8°C° 0 mm 9 mps 761 mmHg 87%
    06:00 +8°C° 0 mm 9 mps 762 mmHg 87%
    07:00 +10°C° 0 mm 9 mps 762 mmHg 87%
    08:00 +10°C° 0 mm 9 mps 763 mmHg 87%
    09:00 +10°C° 0 mm 9 mps 763 mmHg 87%
    10:00 +10°C° 0 mm 9 mps 764 mmHg 87%
    11:00 +11°C° 0 mm 9 mps 764 mmHg 87%
    12:00 +11°C° 0 mm 8 mps 765 mmHg 87%
    13:00 +11°C° 0 mm 8 mps 765 mmHg 87%
    14:00 +11°C° 0 mm 8 mps 765 mmHg 87%
    15:00 +11°C° 0 mm 8 mps 765 mmHg 87%
    16:00 +11°C° 0 mm 8 mps 765 mmHg 87%
    17:00 +10°C° 0 mm 8 mps 764 mmHg 87%
    18:00 +10°C° 0 mm 9 mps 764 mmHg 87%
    19:00 +10°C° 0 mm 9 mps 764 mmHg 87%
    20:00 +10°C° 0 mm 9 mps 764 mmHg 88%
    21:00 +10°C° 0 mm 9 mps 763 mmHg 88%
    22:00 +9°C° 0.3 mm 10 mps 763 mmHg 88%
    23:00 +11°C° 0.3 mm 10 mps 763 mmHg 89%
    Show more